STARLINK-1661, 46355

Orbit data source: Space-Track

STARLINK-1661, 46355 is a payload satellite owned by SpaceX/Seattle (US) in LEO that was launched on Thu, 03 Sep 2020 UTC via an FALCON 9 launch vehicle from the Air Force Eastern Test Range (AFETR). Payload-class satellites include a variety of spacecraft equipped with specific instruments for various scientific and technological missions. These include communications satellites like Starlink; space stations such as the ISS; scientific satellites like the Hubble; Earth observation satellites from companies like Planet Labs, Umbra, and HawkEye 360; GPS; miniature CubeSats for education and research; and military/defense satellites.

Loading next visibility...
Identifier
46355, 2020-062AG
Orbit
LEO
Country
Flag of USUS
Related business
Manufacturer
SpaceX/Seattle
Mission
Operational Commercial Communications
Bus & Motor
STARLINK, Unknown motor
Mass
260 kg wet, ~248 kg dry
Launch date (UTC)
2020-09-03 (5 years ago)
Launch vehicle
FALCON 9
Launch site
Air Force Eastern Test Range (AFETR)
Object type
Payload
Rocket body
Debris
Shape & HBR
Box + 1 Pan, 10.1 m
Radar Cross Section
13.562 m², Large (>1 m²)

Expand to show TLE details & history
Last TLE update: 6 hours ago

TLE from 6 hours ago
0 STARLINK-1661
1 46355U 20062AG  25342.27983877 -.00002952  00000-0 -17943-3 0  9997
2 46355  53.0542  66.9723 0001226  95.5035 264.6094 15.06389292290530
Epoch: 2025-12-08T06:42Z
TLE epoch observation values (Epoch: 2025-12-08T06:42:58.069Z)
Latitude
-0.00002°
Longitude
-111.05081°
Altitude
548.203 km
Speed
7.589 km/s
True Right ascension
04h 27m 53s
True Declination
0° 00' 00"
Sunlit
Object was in full shadow at epoch
Visualization orbit readout
Latitude
Unknown
Longitude
Unknown
Altitude
Unknown
Speed
Unknown
Apparent Right ascension
Unknown
Apparent Declination
Unknown
Sunlit
N/A
Visualization observer readout
Local Sidereal Time
11:09:58
Azimuth
Unknown
Elevation
Unknown
Doppler factor
Unknown
Orbital elements
Apogee altitude
548.364 km
Perigee altitude
546.666 km
Semi-major axis
6,925.652 km
Eccentricity
0.00012
Inclination
53.0542°
RAAN
66.9723°
Arg. of periapsis
95.5035°
True anomaly
264.59541°
Mean anomaly
264.6094°
Eccentric anomaly
264.60241°
Mean motion
3.76576 °/min
Orbital period
95.6 mins
BSTAR
-0.00017943
Loading maneuver chart data...
Computing Atmospheric mass density...

Documentation

Showing up to 5 results
|